GW4420 Weather Reports


time (UTC)temp
C
wind
direction
speed
KPH
gust
KPH
rain 1hr
cm
rain 24hr
cm
rain mn
cm
humidity
%
barometer
mb
20260503191627 20 97 0.0 1.6 0.00 1.57 1.57 93 1017.2
20260503191124 20 108 0.0 1.6 0.00 1.57 1.57 93 1016.9
20260503190621 20 1 1.6 6.4 0.00 1.57 1.57 93 1016.3
20260503190117 20 352 3.2 9.7 0.00 1.57 1.57 93 1016.0
20260503185614 20 78 1.6 6.4 0.00 1.57 1.57 93 1015.9
20260503185114 20 118 1.6 4.8 0.00 1.57 1.57 94 1016.3
20260503184609 20 306 3.2 4.8 0.00 1.57 1.57 94 1016.4
20260503184106 20 86 1.6 6.4 0.00 1.57 1.57 94 1016.3
20260503183603 20 98 0.0 4.8 0.00 1.57 1.57 94 1016.3
20260503183100 20 171 1.6 1.6 0.00 1.57 1.57 94 1016.7
20260503182558 20 74 0.0 1.6 0.00 1.57 1.57 94 1016.8
20260503182056 20 293 1.6 3.2 0.00 1.57 1.57 94 1016.7
20260503181553 20 98 0.0 0.0 0.00 1.57 1.57 94 1016.5
20260503181049 20 107 0.0 1.6 0.00 1.57 1.57 94 1016.6
20260503180546 20 108 1.6 9.7 0.00 1.57 1.57 94 1016.4
20260503180044 20 315 3.2 3.2 0.00 1.57 1.57 94 1016.6
20260503175541 20 88 0.0 1.6 0.00 1.57 1.57 94 1016.6
20260503175038 20 332 6.4 6.4 0.00 1.57 1.57 94 1016.5
20260503174535 20 213 4.8 6.4 0.18 1.57 1.57 94 1016.1
20260503174031 20 107 1.6 6.4 0.18 1.57 1.57 94 1016.4
20260503173526 20 159 1.6 4.8 0.00 1.55 1.55 94 1016.6
20260503173023 20 105 0.0 1.6 0.00 1.55 1.55 94 1017.0
20260503172521 20 295 1.6 3.2 0.13 1.55 1.55 94 1017.1
20260503172018 20 109 0.0 3.2 0.13 1.55 1.55 94 1016.7
20260503171514 20 226 0.0 6.4 0.00 1.52 1.52 94 1016.1
20260503171012 20 286 4.8 14.5 0.18 1.52 1.52 94 1015.2
20260503170508 20 341 8.0 12.9 0.30 1.50 1.50 94 1015.3
20260503150900 23 294 4.8 17.7 0.48 0.08 0.08 90 1016.5
20260503150356 23 129 0.0 1.6 0.18 0.03 0.03 90 1016.4
20260503131250 26 145 11.3 14.5 0.00 0.00 0.00 83 1015.3
20260503130748 26 38 1.6 6.4 0.00 0.00 0.00 83 1015.4
20260503130245 26 97 3.2 4.8 0.00 0.00 0.00 83 1015.4
20260503120211 26 92 1.6 4.8 0.00 0.00 0.00 87 1014.4
20260503110638 26 106 4.8 20.9 0.00 0.00 0.00 87 1014.2
20260503110136 26 117 3.2 12.9 0.00 0.00 0.00 86 1014.0
20260503081451 26 60 11.3 17.7 0.00 0.00 0.00 82 1013.6
20260503080948 26 114 16.1 25.7 0.00 0.00 0.00 81 1013.6
20260503080445 26 147 12.9 29.0 0.00 0.00 0.00 81 1013.4
20260503072921 27 77 9.7 20.9 0.00 0.00 0.00 78 1013.1
20260503072419 27 50 1.6 20.9 0.00 0.00 0.00 78 1013.0
20260503071915 27 153 11.3 14.5 0.00 0.00 0.00 78 1013.1
20260503071413 27 51 3.2 11.3 0.00 0.00 0.00 78 1013.0
20260503070908 27 205 14.5 22.5 0.00 0.00 0.00 77 1013.0
20260503070406 27 185 11.3 25.7 0.00 0.00 0.00 77 1012.9
20260503060332 27 184 19.3 29.0 0.00 0.00 0.00 77 1014.2
20260503054820 28 165 14.5 20.9 0.00 0.00 0.00 75 1014.0
20260503054315 27 126 9.7 22.5 0.00 0.00 0.00 76 1013.9
20260503053813 27 200 11.3 20.9 0.00 0.00 0.00 76 1013.9
20260503053312 27 127 12.9 17.7 0.00 0.00 0.00 76 1014.0
20260503052808 27 198 11.3 22.5 0.00 0.00 0.00 76 1014.1
20260503052305 27 133 19.3 27.4 0.00 0.00 0.00 75 1014.1
20260503051800 27 95 9.7 16.1 0.00 0.00 0.00 76 1014.1
20260503051257 27 104 9.7 20.9 0.00 0.00 0.00 75 1014.7
20260503050754 27 122 12.9 22.5 0.00 0.00 0.00 75 1014.8
20260503050250 27 136 20.9 24.1 0.00 0.00 0.00 74 1014.5
20260503045748 28 151 19.3 25.7 0.00 0.00 0.00 73 1014.7
20260503045246 28 170 11.3 27.4 0.00 0.00 0.00 73 1014.6
20260503044741 28 125 14.5 24.1 0.00 0.00 0.00 72 1014.9
20260503044239 28 116 17.7 29.0 0.00 0.00 0.00 72 1014.7
20260503043736 28 45 14.5 24.1 0.00 0.00 0.00 72 1014.7
20260503043233 28 70 4.8 27.4 0.00 0.00 0.00 73 1014.7
20260503042729 28 124 6.4 24.1 0.00 0.00 0.00 74 1014.8
20260503042226 28 125 9.7 22.5 0.00 0.00 0.00 74 1014.8
20260503041722 28 188 12.9 22.5 0.00 0.00 0.00 73 1014.7
20260503041220 28 144 12.9 22.5 0.00 0.00 0.00 73 1014.6
20260503040717 28 150 3.2 17.7 0.00 0.00 0.00 74 1014.5
20260503040215 28 124 8.0 14.5 0.00 0.00 0.00 75 1014.6
20260503035711 28 146 9.7 17.7 0.00 0.00 0.00 74 1014.7
20260503035209 28 128 4.8 11.3 0.00 0.00 0.00 75 1014.9
20260503034706 28 109 12.9 24.1 0.00 0.00 0.00 74 1014.6
20260503034203 28 152 9.7 14.5 0.00 0.00 0.00 75 1014.7
20260503033700 27 93 6.4 16.1 0.00 0.00 0.00 76 1014.6
20260503033157 27 336 6.4 16.1 0.00 0.00 0.00 76 1014.8
20260503032655 27 65 3.2 17.7 0.00 0.00 0.00 76 1014.6
20260503032154 27 136 12.9 20.9 0.00 0.00 0.00 76 1014.7
20260503031651 27 117 12.9 17.7 0.00 0.00 0.00 76 1015.1
20260503031149 27 127 9.7 12.9 0.00 0.00 0.00 76 1014.8
20260503030644 27 147 8.0 12.9 0.00 0.00 0.00 76 1015.0
20260503030141 28 161 8.0 14.5 0.00 0.00 0.00 74 1015.1
20260503025638 27 104 14.5 24.1 0.00 0.00 0.00 76 1015.2
20260503025136 27 72 3.2 16.1 0.00 0.00 0.00 77 1015.1
20260503024632 27 72 11.3 16.1 0.00 0.00 0.00 76 1015.3
20260503024129 27 153 14.5 17.7 0.00 0.00 0.00 75 1015.3
20260503023627 27 105 16.1 22.5 0.00 0.00 0.00 77 1015.4
20260503023124 27 85 9.7 17.7 0.00 0.00 0.00 76 1015.3
20260503022619 27 184 6.4 14.5 0.00 0.00 0.00 77 1015.2
20260503022114 27 148 8.0 11.3 0.00 0.00 0.00 78 1015.2
20260503021611 27 168 9.7 24.1 0.00 0.00 0.00 77 1015.3
20260503021108 27 197 4.8 24.1 0.00 0.00 0.00 77 1015.1
20260503020605 27 88 4.8 12.9 0.00 0.00 0.00 77 1015.3
20260503015559 27 114 6.4 20.9 0.00 0.00 0.00 78 1015.3
20260503015056 27 75 3.2 16.1 0.00 0.00 0.00 79 1015.2
20260503014552 27 134 3.2 9.7 0.00 0.00 0.00 79 1015.5
20260503014050 27 102 6.4 16.1 0.00 0.00 0.00 78 1015.3
20260503013547 26 118 6.4 14.5 0.00 0.00 0.00 79 1015.3
20260503013044 26 80 11.3 16.1 0.00 0.00 0.00 80 1015.3
20260503012542 26 111 6.4 12.9 0.00 0.00 0.00 80 1015.2
20260503012038 26 90 1.6 9.7 0.00 0.00 0.00 82 1015.2
20260503011535 26 160 3.2 16.1 0.00 0.00 0.00 83 1015.4
20260503011032 25 63 4.8 14.5 0.00 0.00 0.00 83 1015.6
20260503010528 25 135 6.4 16.1 0.00 0.00 0.00 82 1015.7
20260503010026 26 107 6.4 12.9 0.00 0.00 0.00 82 1015.6
20260503005523 25 173 14.5 16.1 0.00 0.00 0.00 83 1015.6
20260503005020 25 111 4.8 14.5 0.00 0.00 0.00 83 1015.5
20260503004516 25 90 3.2 12.9 0.00 0.00 0.00 83 1015.3
20260503004014 25 56 3.2 11.3 0.00 0.00 0.00 83 1015.4
20260503003511 25 87 3.2 11.3 0.00 0.00 0.00 83 1015.7
20260503003008 25 101 9.7 20.9 0.00 0.00 0.00 83 1015.3
20260503002505 25 96 4.8 9.7 0.00 0.00 0.00 84 1015.4
20260503002001 25 143 4.8 9.7 0.00 0.00 0.00 84 1015.3
20260503001458 25 140 4.8 9.7 0.00 0.00 0.00 86 1015.4
20260503000955 25 117 4.8 11.3 0.00 0.00 0.00 85 1015.4
20260503000453 25 135 1.6 11.3 0.00 0.00 0.00 85 1015.1
20260502235950 25 94 0.0 3.2 0.00 0.00 0.00 85 1015.2
20260502235446 25 92 6.4 6.4 0.00 0.00 0.00 85 1015.2
20260502234944 25 100 6.4 11.3 0.00 0.00 0.00 85 1015.2
20260502234440 25 86 3.2 6.4 0.00 0.00 0.00 85 1014.9
20260502233938 25 68 4.8 11.3 0.00 0.00 0.00 85 1015.0
20260502233433 25 84 1.6 9.7 0.00 0.00 0.00 86 1015.1
20260502232930 25 67 3.2 11.3 0.00 0.00 0.00 86 1015.0
20260502232426 25 46 4.8 9.7 0.00 0.00 0.00 86 1015.1
20260502231923 25 88 1.6 3.2 0.00 0.00 0.00 87 1015.2
20260502231420 24 107 3.2 12.9 0.00 0.00 0.00 86 1015.1
20260502230919 24 101 1.6 11.3 0.00 0.00 0.00 86 1014.9
20260502230416 25 74 1.6 4.8 0.00 0.00 0.00 86 1014.8
20260502225914 25 54 1.6 6.4 0.00 0.00 0.00 87 1014.9
20260502225410 24 94 4.8 12.9 0.00 0.00 0.00 87 1014.7
20260502224907 24 107 8.0 11.3 0.00 0.00 0.00 87 1014.9
20260502224403 24 70 6.4 12.9 0.00 0.00 0.00 87 1014.8
20260502223900 24 70 6.4 11.3 0.00 0.00 0.00 87 1014.6
20260502223358 23 68 6.4 9.7 0.00 0.00 0.00 88 1014.9
20260502222856 23 86 4.8 6.4 0.00 0.00 0.00 88 1014.8
20260502222353 23 98 4.8 11.3 0.00 0.00 0.00 88 1015.0
20260502221848 23 92 9.7 11.3 0.00 0.00 0.00 88 1015.0
20260502221345 23 101 6.4 9.7 0.00 0.00 0.00 89 1014.9
20260502220843 23 92 6.4 6.4 0.00 0.00 0.00 89 1014.8
20260502220338 23 84 3.2 6.4 0.00 0.00 0.00 89 1014.8
20260502215835 23 78 1.6 9.7 0.00 0.00 0.00 89 1014.9
20260502215333 23 61 1.6 4.8 0.00 0.00 0.00 89 1015.0
20260502214829 23 113 4.8 9.7 0.00 0.00 0.00 89 1014.7
20260502214325 23 135 3.2 4.8 0.00 0.00 0.00 89 1014.4
20260502213823 23 105 3.2 9.7 0.00 0.00 0.00 89 1014.6
20260502213320 23 97 4.8 11.3 0.00 0.00 0.00 89 1014.4
20260502212819 23 77 8.0 11.3 0.00 0.00 0.00 89 1014.4
20260502212317 23 84 1.6 6.4 0.00 0.00 0.00 89 1014.5
20260502211814 23 93 3.2 3.2 0.00 0.00 0.00 89 1014.6
20260502211309 23 92 1.6 4.8 0.00 0.00 0.00 89 1014.7
20260502210807 23 86 3.2 3.2 0.00 0.00 0.00 89 1014.7
20260502210305 23 14 0.0 4.8 0.00 0.00 0.00 89 1014.6
20260502205802 23 77 1.6 3.2 0.00 0.00 0.00 89 1014.8
20260502205257 23 71 4.8 9.7 0.00 0.00 0.00 89 1014.9
20260502204755 22 125 6.4 11.3 0.00 0.00 0.00 89 1014.8
20260502204252 22 89 6.4 6.4 0.00 0.00 0.00 89 1014.7
20260502203749 22 95 4.8 9.7 0.00 0.00 0.00 88 1014.7
20260502203247 22 96 3.2 9.7 0.00 0.00 0.00 88 1014.7
20260502202741 22 115 3.2 11.3 0.00 0.00 0.00 88 1014.7
20260502202240 22 86 6.4 11.3 0.00 0.00 0.00 88 1014.9
20260502201737 22 19 1.6 9.7 0.00 0.00 0.00 88 1014.7
20260502201233 22 101 0.0 3.2 0.00 0.00 0.00 88 1014.5
20260502200724 22 98 3.2 6.4 0.00 0.00 0.00 88 1014.5
20260502200220 22 69 8.0 14.5 0.00 0.00 0.00 88 1014.5
20260502195719 22 81 6.4 9.7 0.00 0.00 0.00 88 1014.4
20260502195215 22 125 6.4 9.7 0.00 0.00 0.00 88 1014.8
20260502194712 22 37 4.8 9.7 0.00 0.00 0.00 88 1014.7
20260502194209 22 57 3.2 6.4 0.00 0.00 0.00 88 1014.8
20260502193705 22 97 3.2 6.4 0.00 0.00 0.00 88 1014.9
20260502193202 22 92 6.4 12.9 0.00 0.00 0.00 88 1014.8
20260502192657 22 76 4.8 9.7 0.00 0.00 0.00 88 1014.9
20260502192155 22 99 3.2 6.4 0.00 0.00 0.00 88 1014.8